Time_in_sec,Latitude,Longitude,Altitude,Nbsat_max_qualitysignal,Nbsat_locked,valid_data
1314364187.56142926,0.00005752,0.00005810,-20549.57812500,0,0,0
1314364291.32150841,0.00005768,0.00005694,-23536.36132812,0,0,0
1314364291.36083126,0.00005768,0.00005694,-23538.11718750,0,0,0
1314364291.41319919,0.00005768,0.00005694,-23539.28710938,0,0,0
1314364291.46147752,0.00005775,0.00005699,-23540.75000000,0,0,0
1314364291.51265860,0.00005768,0.00005694,-23542.21289062,0,0,0
1314364291.56146145,0.00005775,0.00005699,-23543.67578125,0,0,0
1314364291.61346292,0.00005767,0.00005695,-23545.13867188,0,0,0
1314364291.66164207,0.00005775,0.00005699,-23546.59960938,0,0,0
1314364291.71346116,0.00005767,0.00005695,-23548.06250000,0,0,0
1314364291.76251602,0.00005774,0.00005700,-23549.52539062,0,0,0
1314364291.81271243,0.00005767,0.00005695,-23550.98828125,0,0,0
1314364291.86146927,0.00005774,0.00005700,-23552.45117188,0,0,0
1314364291.91322041,0.00005767,0.00005695,-23553.91406250,0,0,0
1314364291.96148515,0.00005774,0.00005700,-23555.37695312,0,0,0
1314364292.01272726,0.00005767,0.00005695,-23556.83984375,0,0,0
1314364292.06472135,0.00005774,0.00005700,-23558.30273438,0,0,0
1314364292.11372137,0.00005766,0.00005696,-23559.76562500,0,0,0
1314364292.16069794,0.00005773,0.00005700,-23561.22851562,0,0,0
1314364292.21268940,0.00005766,0.00005696,-23562.69140625,0,0,0
1314364292.26145840,0.00005773,0.00005700,-23564.15429688,0,0,0
1314364292.31270313,0.00005766,0.00005696,-23565.61718750,0,0,0
1314364292.36147285,0.00005773,0.00005701,-23567.08007812,0,0,0
1314364292.41269565,0.00005766,0.00005696,-23568.54296875,0,0,0
1314364292.46062613,0.00005773,0.00005701,-23570.00585938,0,0,0
1314364292.51914406,0.00005765,0.00005696,-23571.46875000,0,0,0
1314364292.56070995,0.00005772,0.00005701,-23572.93164062,0,0,0
1314364292.61338377,0.00005765,0.00005697,-23574.39648438,0,0,0
1314364292.66471982,0.00005772,0.00005701,-23575.85937500,0,0,0
1314364292.71246505,0.00005765,0.00005697,-23577.32226562,0,0,0
1314364292.76146197,0.00005772,0.00005701,-23578.78515625,0,0,0
1314364292.81280971,0.00005765,0.00005697,-23580.24804688,0,0,0
1314364292.86546469,0.00005772,0.00005702,-23581.71093750,0,0,0
1314364292.91391635,0.00005765,0.00005697,-23583.17382812,0,0,0
1314364292.96615911,0.00005772,0.00005702,-23584.63671875,0,0,0
1314364293.01263094,0.00005764,0.00005697,-23586.10156250,0,0,0
1314364293.07348728,0.00005771,0.00005702,-23587.56445312,0,0,0
1314364293.11349821,0.00005771,0.00005702,-23589.32031250,0,0,0
1314364293.16144991,0.00005771,0.00005702,-23590.49023438,0,0,0
1314364293.21386170,0.00005764,0.00005698,-23591.95312500,0,0,0
1314364293.26466560,0.00005771,0.00005703,-23593.41796875,0,0,0
1314364293.31537271,0.00005764,0.00005698,-23594.88085938,0,0,0
1314364293.36462975,0.00005771,0.00005703,-23596.34375000,0,0,0
1314364293.42064118,0.00005763,0.00005698,-23597.80664062,0,0,0
1314364293.47350025,0.00005763,0.00005698,-23599.56445312,0,0,0
1314364293.51350141,0.00005770,0.00005703,-23601.02734375,0,0,0
1314364293.56152034,0.00005770,0.00005703,-23602.19726562,0,0,0
1314364293.62072539,0.00005763,0.00005699,-23603.66210938,0,0,0
1314364293.66065907,0.00005763,0.00005699,-23605.41796875,0,0,0
1314364293.71351266,0.00005763,0.00005699,-23606.58789062,0,0,0
1314364293.76061749,0.00005770,0.00005704,-23608.05078125,0,0,0
1314364293.82548141,0.00005762,0.00005699,-23609.51562500,0,0,0
1314364293.87349463,0.00005762,0.00005699,-23611.27148438,0,0,0
1314364293.91579318,0.00005769,0.00005704,-23612.73437500,0,0,0
1314364293.96146202,0.00005769,0.00005704,-23613.90625000,0,0,0
1314364294.01298356,0.00005762,0.00005700,-23615.36914062,0,0,0
1314364294.06066704,0.00005769,0.00005704,-23616.83398438,0,0,0
1314364294.11448121,0.00005762,0.00005700,-23618.29687500,0,0,0
1314364294.16062665,0.00005769,0.00005705,-23619.76171875,0,0,0
1314364294.21273422,0.00005762,0.00005700,-23621.22460938,0,0,0
1314364294.26145720,0.00005768,0.00005705,-23622.68750000,0,0,0
1314364294.31264615,0.00005761,0.00005700,-23624.15234375,0,0,0
1314364294.36146688,0.00005768,0.00005705,-23625.61523438,0,0,0
1314364294.41272759,0.00005761,0.00005700,-23627.08007812,0,0,0
1314364294.46070313,0.00005768,0.00005705,-23628.54296875,0,0,0
1314364294.51643729,0.00005761,0.00005701,-23630.00781250,0,0,0
1314364294.56069517,0.00005768,0.00005705,-23631.47265625,0,0,0
1314364294.61258578,0.00005761,0.00005701,-23632.93554688,0,0,0
1314364294.66147780,0.00005768,0.00005706,-23634.40039062,0,0,0
1314364294.71263671,0.00005761,0.00005701,-23635.86328125,0,0,0
1314364294.76148415,0.00005767,0.00005706,-23637.32812500,0,0,0
1314364294.81256056,0.00005760,0.00005701,-23638.79296875,0,0,0
1314364294.86059523,0.00005767,0.00005706,-23640.25585938,0,0,0
1314364294.91350293,0.00005760,0.00005701,-23641.72070312,0,0,0
1314364294.96058154,0.00005767,0.00005706,-23643.18359375,0,0,0
1314364295.02059841,0.00005760,0.00005702,-23644.64843750,0,0,0
1314364295.06147361,0.00005760,0.00005702,-23646.40625000,0,0,0
1314364295.11260462,0.00005760,0.00005702,-23647.57617188,0,0,0
1314364295.16146827,0.00005767,0.00005707,-23649.04101562,0,0,0
1314364295.21350861,0.00005759,0.00005702,-23650.50585938,0,0,0
1314364295.26109529,0.00005766,0.00005707,-23651.96875000,0,0,0
1314364295.31346345,0.00005759,0.00005702,-23653.43359375,0,0,0
1314364295.36155128,0.00005766,0.00005707,-23654.89843750,0,0,0
1314364295.41256213,0.00005759,0.00005702,-23656.36328125,0,0,0
1314364295.46147704,0.00005766,0.00005707,-23657.82617188,0,0,0
1314364295.51259136,0.00005759,0.00005702,-23659.29101562,0,0,0
1314364295.56163430,0.00005766,0.00005707,-23660.75585938,0,0,0
1314364295.61357450,0.00005759,0.00005703,-23662.22070312,0,0,0
1314364295.67255926,0.00005765,0.00005708,-23663.68554688,0,0,0
1314364295.71321583,0.00005765,0.00005708,-23665.44335938,0,0,0
1314364295.76145864,0.00005765,0.00005708,-23666.61328125,0,0,0
1314364295.82146049,0.00005758,0.00005703,-23668.07812500,0,0,0
1314364295.86150503,0.00005758,0.00005703,-23669.83593750,0,0,0
1314364295.91305614,0.00005758,0.00005703,-23671.00781250,0,0,0
1314364295.96147656,0.00005765,0.00005708,-23672.47265625,0,0,0
1314364296.01246190,0.00005758,0.00005703,-23673.93750000,0,0,0
1314364296.06061864,0.00005765,0.00005708,-23675.40234375,0,0,0
1314364296.11544967,0.00005758,0.00005703,-23676.86718750,0,0,0
1314364296.16058278,0.00005764,0.00005708,-23678.33203125,0,0,0
1314364296.21255970,0.00005757,0.00005704,-23679.79687500,0,0,0
1314364296.27252054,0.00005764,0.00005709,-23681.26171875,0,0,0
1314364296.31351781,0.00005764,0.00005709,-23683.01953125,0,0,0
1314364296.36146355,0.00005764,0.00005709,-23684.19140625,0,0,0
1314364296.41253114,0.00005757,0.00005704,-23685.65625000,0,0,0
1314364296.46058416,0.00005764,0.00005709,-23687.12109375,0,0,0
1314364296.51346016,0.00005757,0.00005704,-23688.58593750,0,0,0
1314364296.56152797,0.00005764,0.00005709,-23690.05078125,0,0,0
1314364296.61356282,0.00005757,0.00005704,-23691.51562500,0,0,0
1314364296.66151619,0.00005764,0.00005709,-23692.98242188,0,0,0
1314364296.71254349,0.00005757,0.00005704,-23694.44726562,0,0,0
1314364296.77348518,0.00005763,0.00005709,-23695.91210938,0,0,0
1314364296.81271076,0.00005763,0.00005709,-23697.66992188,0,0,0
1314364296.86163330,0.00005763,0.00005709,-23698.84179688,0,0,0
1314364296.92148757,0.00005756,0.00005705,-23700.30664062,0,0,0
1314364296.96048617,0.00005756,0.00005705,-23702.06640625,0,0,0
1314364297.01326823,0.00005756,0.00005705,-23703.23828125,0,0,0
1314364297.06153727,0.00005763,0.00005710,-23704.70312500,0,0,0
1314364297.11353779,0.00005756,0.00005705,-23706.16796875,0,0,0
1314364297.16150570,0.00005763,0.00005710,-23707.63281250,0,0,0
1314364297.21350694,0.00005756,0.00005705,-23709.09960938,0,0,0
1314364297.26161599,0.00005762,0.00005710,-23710.56445312,0,0,0
1314364297.31665087,0.00005755,0.00005705,-23712.02929688,0,0,0
1314364297.36052656,0.00005762,0.00005710,-23713.49414062,0,0,0
1314364297.41252899,0.00005755,0.00005705,-23714.96093750,0,0,0
1314364297.46448588,0.00005762,0.00005710,-23716.42578125,0,0,0
1314364297.51252675,0.00005755,0.00005706,-23717.89062500,0,0,0
1314364297.56149983,0.00005762,0.00005711,-23719.35546875,0,0,0
1314364297.62075377,0.00005755,0.00005706,-23720.82226562,0,0,0
1314364297.66149592,0.00005755,0.00005706,-23722.58007812,0,0,0
1314364297.71991467,0.00005755,0.00005706,-23723.75195312,0,0,0
1314364297.76050234,0.00005761,0.00005711,-23725.21875000,0,0,0
1314364297.81346440,0.00005754,0.00005706,-23726.68359375,0,0,0
1314364297.86157966,0.00005761,0.00005711,-23728.14843750,0,0,0
1314364297.91250467,0.00005754,0.00005706,-23729.61523438,0,0,0
1314364297.96149755,0.00005761,0.00005711,-23731.08007812,0,0,0
1314364298.01349187,0.00005754,0.00005707,-23732.54492188,0,0,0
1314364298.06052160,0.00005761,0.00005711,-23734.00976562,0,0,0
1314364298.11493993,0.00005754,0.00005707,-23735.47656250,0,0,0
1314364298.16051626,0.00005761,0.00005712,-23736.94140625,0,0,0
1314364298.21247339,0.00005754,0.00005707,-23738.40820312,0,0,0
1314364298.27350330,0.00005760,0.00005712,-23739.87304688,0,0,0
1314364298.31258774,0.00005760,0.00005712,-23741.63085938,0,0,0
1314364298.36149383,0.00005760,0.00005712,-23742.80468750,0,0,0
1314364298.41348863,0.00005753,0.00005707,-23744.26953125,0,0,0
1314364298.46053123,0.00005760,0.00005712,-23745.73632812,0,0,0
1314364298.51345730,0.00005753,0.00005707,-23747.20117188,0,0,0
1314364298.56055665,0.00005760,0.00005712,-23748.66796875,0,0,0
1314364298.62058330,0.00005753,0.00005708,-23750.13281250,0,0,0
1314364298.66146922,0.00005753,0.00005708,-23751.89257812,0,0,0
1314364298.72065806,0.00005752,0.00005708,-23753.06445312,0,0,0
1314364298.76148033,0.00005752,0.00005708,-23754.82421875,0,0,0
1314364298.81344843,0.00005752,0.00005708,-23755.99609375,0,0,0
1314364298.87345648,0.00005759,0.00005713,-23757.46289062,0,0,0
1314364298.91746616,0.00005759,0.00005713,-23759.22070312,0,0,0
1314364298.96358323,0.00005759,0.00005713,-23760.39453125,0,0,0
1314364299.01340795,0.00005752,0.00005708,-23761.85937500,0,0,0
1314364299.06046081,0.00005759,0.00005713,-23763.32617188,0,0,0
1314364299.12050271,0.00005752,0.00005709,-23764.79101562,0,0,0
1314364299.17346835,0.00005751,0.00005709,-23766.55078125,0,0,0
1314364299.21251512,0.00005758,0.00005714,-23768.01562500,0,0,0
1314364299.26158166,0.00005758,0.00005714,-23769.18945312,0,0,0
1314364299.31635451,0.00005751,0.00005709,-23770.65429688,0,0,0
1314364299.36152768,0.00005758,0.00005714,-23772.12109375,0,0,0
1314364299.41252518,0.00005751,0.00005709,-23773.58789062,0,0,0
1314364299.47343588,0.00005758,0.00005714,-23775.05273438,0,0,0
1314364299.51254988,0.00005758,0.00005714,-23776.81250000,0,0,0
1314364299.56147408,0.00005757,0.00005714,-23777.98632812,0,0,0
1314364299.62060761,0.00005750,0.00005710,-23779.45117188,0,0,0
1314364299.66458106,0.00005750,0.00005710,-23781.21093750,0,0,0
1314364299.71349835,0.00005750,0.00005710,-23782.38476562,0,0,0
1314364299.76153946,0.00005757,0.00005715,-23783.84960938,0,0,0
1314364299.81254721,0.00005750,0.00005710,-23785.31640625,0,0,0
1314364299.87349916,0.00005757,0.00005715,-23786.78320312,0,0,0
1314364299.92052245,0.00005756,0.00005715,-23788.54296875,0,0,0
1314364299.96147132,0.00005749,0.00005710,-23790.00781250,0,0,0
1314364300.01250887,0.00005749,0.00005711,-23791.18164062,0,0,0
1314364300.06056237,0.00005756,0.00005715,-23792.64843750,0,0,0
1314364300.11346936,0.00005749,0.00005711,-23794.11523438,0,0,0
1314364300.16152644,0.00005756,0.00005716,-23795.58007812,0,0,0
1314364300.22050023,0.00005749,0.00005711,-23797.04687500,0,0,0
1314364300.27348685,0.00005749,0.00005711,-23798.80664062,0,0,0
1314364300.31350231,0.00005755,0.00005716,-23800.27343750,0,0,0
1314364300.36108255,0.00005755,0.00005716,-23801.44726562,0,0,0
1314364300.41349101,0.00005748,0.00005711,-23802.91210938,0,0,0
1314364300.46050167,0.00005755,0.00005716,-23804.37890625,0,0,0
1314364300.52147508,0.00005748,0.00005712,-23805.84570312,0,0,0
1314364300.56045723,0.00005748,0.00005712,-23807.60546875,0,0,0
1314364300.61351919,0.00005748,0.00005712,-23808.77929688,0,0,0
1314364300.67343855,0.00005754,0.00005717,-23810.24609375,0,0,0
1314364300.71354389,0.00005754,0.00005717,-23812.00585938,0,0,0
1314364300.76146436,0.00005754,0.00005717,-23813.17773438,0,0,0
1314364300.82052827,0.00005747,0.00005712,-23814.64453125,0,0,0
1314364300.86151171,0.00005747,0.00005713,-23816.40429688,0,0,0
1314364300.91480780,0.00005747,0.00005713,-23817.57812500,0,0,0
1314364300.96147537,0.00005753,0.00005718,-23819.04492188,0,0,0
1314364301.01349521,0.00005747,0.00005713,-23820.51171875,0,0,0
1314364301.07346582,0.00005753,0.00005718,-23821.97851562,0,0,0
1314364301.11605978,0.00005753,0.00005718,-23823.73828125,0,0,0
1314364301.16146755,0.00005753,0.00005718,-23824.91210938,0,0,0
1314364301.22049451,0.00005746,0.00005713,-23826.37890625,0,0,0
1314364301.26046062,0.00005746,0.00005713,-23828.13867188,0,0,0
1314364301.31345963,0.00005746,0.00005714,-23829.31250000,0,0,0
1314364301.36054778,0.00005752,0.00005719,-23830.77929688,0,0,0
1314364301.41252947,0.00005745,0.00005714,-23832.24609375,0,0,0
1314364301.47245574,0.00005752,0.00005719,-23833.71289062,0,0,0
1314364301.52045059,0.00005752,0.00005719,-23835.47265625,0,0,0
1314364301.56175041,0.00005745,0.00005714,-23836.93945312,0,0,0
1314364301.62065005,0.00005745,0.00005714,-23838.11328125,0,0,0
1314364301.66151738,0.00005745,0.00005714,-23839.87500000,0,0,0
1314364301.71381974,0.00005745,0.00005714,-23841.04687500,0,0,0
1314364301.76051569,0.00005751,0.00005719,-23842.51367188,0,0,0
1314364301.82146668,0.00005744,0.00005715,-23843.98242188,0,0,0
1314364301.87348890,0.00005744,0.00005715,-23845.74218750,0,0,0
1314364301.92146611,0.00005751,0.00005720,-23847.20898438,0,0,0
1314364301.96149564,0.00005744,0.00005715,-23848.67578125,0,0,0
1314364302.02047014,0.00005744,0.00005715,-23849.84960938,0,0,0
1314364302.06149054,0.00005744,0.00005715,-23851.61132812,0,0,0
1314364302.11601782,0.00005744,0.00005715,-23852.78515625,0,0,0
1314364302.16133356,0.00005750,0.00005720,-23854.25195312,0,0,0
1314364302.21254110,0.00005743,0.00005716,-23855.71875000,0,0,0
1314364302.26149392,0.00005750,0.00005721,-23857.18554688,0,0,0
1314364302.32066631,0.00005743,0.00005716,-23858.65429688,0,0,0
1314364302.36146903,0.00005743,0.00005716,-23860.41406250,0,0,0
1314364302.42132711,0.00005743,0.00005716,-23861.58789062,0,0,0
1314364302.46046710,0.00005743,0.00005716,-23863.34960938,0,0,0
1314364302.51051760,0.00005742,0.00005716,-23864.52343750,0,0,0
1314364302.56338000,0.00005749,0.00005721,-23865.99023438,0,0,0
1314364302.62149072,0.00005742,0.00005716,-23867.45703125,0,0,0
1314364302.67353225,0.00005742,0.00005717,-23869.21875000,0,0,0
1314364302.71659327,0.00005748,0.00005722,-23870.68554688,0,0,0
1314364302.76145601,0.00005748,0.00005722,-23871.85937500,0,0,0
1314364302.81253624,0.00005742,0.00005717,-23873.32812500,0,0,0
1314364302.86150765,0.00005748,0.00005722,-23874.79492188,0,0,0
1314364302.92150903,0.00005741,0.00005717,-23876.26367188,0,0,0
1314364302.96047115,0.00005741,0.00005717,-23878.02343750,0,0,0
1314364303.01249552,0.00005741,0.00005717,-23879.19726562,0,0,0
1314364303.07346725,0.00005747,0.00005722,-23880.66601562,0,0,0
1314364303.11648107,0.00005747,0.00005722,-23882.42773438,0,0,0
1314364303.16146469,0.00005747,0.00005722,-23883.60156250,0,0,0
1314364303.21251845,0.00005741,0.00005718,-23885.06835938,0,0,0
1314364303.26044846,0.00005747,0.00005723,-23886.53710938,0,0,0
1314364303.31345439,0.00005740,0.00005718,-23888.00390625,0,0,0
1314364303.36148977,0.00005747,0.00005723,-23889.47265625,0,0,0
1314364303.41335845,0.00005740,0.00005718,-23890.93945312,0,0,0
1314364303.46146727,0.00005746,0.00005723,-23892.40820312,0,0,0
1314364303.52128053,0.00005740,0.00005718,-23893.87695312,0,0,0
1314364303.56146169,0.00005740,0.00005718,-23895.63671875,0,0,0
1314364303.61316252,0.00005740,0.00005718,-23896.81250000,0,0,0
1314364303.67439818,0.00005746,0.00005723,-23898.27929688,0,0,0
1314364303.71480775,0.00005746,0.00005724,-23900.04101562,0,0,0
1314364303.76129913,0.00005745,0.00005724,-23901.21679688,0,0,0
1314364303.82047486,0.00005739,0.00005719,-23902.68359375,0,0,0
1314364303.86145258,0.00005739,0.00005719,-23904.44531250,0,0,0
1314364303.91659307,0.00005739,0.00005719,-23905.62109375,0,0,0
1314364303.96146274,0.00005745,0.00005724,-23907.08789062,0,0,0
1314364304.01348972,0.00005738,0.00005719,-23908.55664062,0,0,0
1314364304.06066084,0.00005745,0.00005724,-23910.02539062,0,0,0
1314364304.11344337,0.00005738,0.00005720,-23911.49218750,0,0,0
1314364304.16050649,0.00005744,0.00005725,-23912.96093750,0,0,0
1314364304.21252561,0.00005738,0.00005720,-23914.42968750,0,0,0
1314364304.26104379,0.00005744,0.00005725,-23915.89843750,0,0,0
1314364304.31248903,0.00005738,0.00005720,-23917.36718750,0,0,0
1314364304.36147690,0.00005744,0.00005725,-23918.83398438,0,0,0
1314364304.41278958,0.00005737,0.00005720,-23920.30273438,0,0,0
1314364304.46127796,0.00005744,0.00005725,-23921.77148438,0,0,0
1314364304.52148056,0.00005737,0.00005720,-23923.24023438,0,0,0
1314364304.56373143,0.00005737,0.00005721,-23925.00195312,0,0,0
1314364304.61324453,0.00005737,0.00005721,-23926.17773438,0,0,0
1314364304.67324328,0.00005743,0.00005726,-23927.64453125,0,0,0
1314364304.71658611,0.00005743,0.00005726,-23929.40820312,0,0,0
1314364304.76146293,0.00005743,0.00005726,-23930.58203125,0,0,0
1314364304.82058668,0.00005736,0.00005721,-23932.05078125,0,0,0
1314364304.86177635,0.00005736,0.00005721,-23933.81250000,0,0,0
1314364304.91347027,0.00005736,0.00005721,-23934.98828125,0,0,0
1314364304.96051908,0.00005742,0.00005726,-23936.45703125,0,0,0
1314364305.01335382,0.00005736,0.00005721,-23937.92578125,0,0,0
1314364305.07253337,0.00005742,0.00005726,-23939.39453125,0,0,0
1314364305.11350870,0.00005742,0.00005726,-23941.15625000,0,0,0
1314364305.16148376,0.00005742,0.00005727,-23942.33203125,0,0,0
1314364305.21254206,0.00005735,0.00005722,-23943.80078125,0,0,0
1314364305.26156020,0.00005741,0.00005727,-23945.26953125,0,0,0
1314364305.31749630,0.00005735,0.00005722,-23946.73828125,0,0,0
1314364305.36125660,0.00005741,0.00005727,-23948.20703125,0,0,0
1314364305.41050100,0.00005735,0.00005722,-23949.67578125,0,0,0
1314364305.46145892,0.00005741,0.00005727,-23951.14453125,0,0,0
1314364305.52049470,0.00005734,0.00005722,-23952.61328125,0,0,0
1314364305.56150723,0.00005734,0.00005723,-23954.37500000,0,0,0
1314364305.62152171,0.00005734,0.00005723,-23955.55078125,0,0,0
1314364305.66060376,0.00005734,0.00005723,-23957.31445312,0,0,0
1314364305.71478152,0.00005734,0.00005723,-23958.48828125,0,0,0
1314364305.76180911,0.00005740,0.00005728,-23959.95703125,0,0,0
1314364305.82149911,0.00005734,0.00005723,-23961.42773438,0,0,0
1314364305.87350249,0.00005734,0.00005723,-23963.18945312,0,0,0
1314364305.91429853,0.00005739,0.00005728,-23964.65820312,0,0,0
1314364305.96147275,0.00005739,0.00005728,-23965.83398438,0,0,0
1314364306.01324749,0.00005733,0.00005723,-23967.30273438,0,0,0
1314364306.06053615,0.00005739,0.00005728,-23968.77148438,0,0,0
1314364306.12150264,0.00005733,0.00005724,-23970.24023438,0,0,0
1314364306.16154099,0.00005733,0.00005724,-23972.00390625,0,0,0
1314364306.21304607,0.00005733,0.00005724,-23973.17968750,0,0,0
1314364306.26148438,0.00005739,0.00005729,-23974.64843750,0,0,0
1314364306.31311321,0.00005732,0.00005724,-23976.11718750,0,0,0
1314364306.36147785,0.00005738,0.00005729,-23977.58593750,0,0,0
1314364306.42077756,0.00005732,0.00005724,-23979.05664062,0,0,0
1314364306.46154571,0.00005732,0.00005724,-23980.81835938,0,0,0
1314364306.52156115,0.00005732,0.00005724,-23981.99414062,0,0,0
1314364306.56269312,0.00005732,0.00005725,-23983.75781250,0,0,0
1314364306.62954998,0.00005732,0.00005725,-23984.93359375,0,0,0
1314364306.66146684,0.00005731,0.00005725,-23986.69726562,0,0,0
1314364306.71259809,0.00005731,0.00005725,-23987.87304688,0,0,0
1314364306.76168990,0.00005737,0.00005730,-23989.34179688,0,0,0
1314364306.81246376,0.00005731,0.00005725,-23990.81054688,0,0,0
1314364306.86052084,0.00005737,0.00005730,-23992.28125000,0,0,0
1314364306.92151904,0.00005731,0.00005725,-23993.75000000,0,0,0
1314364306.96047974,0.00005731,0.00005725,-23995.51367188,0,0,0
1314364307.02047038,0.00005731,0.00005725,-23996.68945312,0,0,0
1314364307.06148601,0.00005730,0.00005726,-23998.45312500,0,0,0
1314364307.12465668,0.00005730,0.00005726,-23999.62890625,0,0,0
1314364307.16071081,0.00005730,0.00005726,-24001.39257812,0,0,0
1314364307.22121835,0.00005730,0.00005726,-24002.56835938,0,0,0
1314364307.26150560,0.00005730,0.00005726,-24004.33203125,0,0,0
1314364307.32059002,0.00005730,0.00005726,-24005.50781250,0,0,0
1314364307.36150408,0.00005730,0.00005726,-24007.27148438,0,0,0
1314364307.41351604,0.00005730,0.00005726,-24008.44726562,0,0,0
1314364307.47321963,0.00005735,0.00005731,-24009.91601562,0,0,0
1314364307.51350665,0.00005735,0.00005731,-24011.67968750,0,0,0
1314364307.56148028,0.00005735,0.00005731,-24012.85546875,0,0,0
1314364307.61322713,0.00005729,0.00005727,-24014.32617188,0,0,0
1314364307.66059375,0.00005735,0.00005732,-24015.79687500,0,0,0
1314364307.71509957,0.00005729,0.00005727,-24017.26562500,0,0,0
1314364307.76059055,0.00005735,0.00005732,-24018.73632812,0,0,0
1314364307.81326318,0.00005729,0.00005727,-24020.20507812,0,0,0
1314364307.87349129,0.00005734,0.00005732,-24021.67578125,0,0,0
1314364307.91323018,0.00005734,0.00005732,-24023.43945312,0,0,0
1314364307.96146655,0.00005734,0.00005732,-24024.61523438,0,0,0
1314364308.01250172,0.00005728,0.00005727,-24026.08593750,0,0,0
1314364308.06049871,0.00005734,0.00005732,-24027.55468750,0,0,0
1314364308.11345601,0.00005728,0.00005728,-24029.02539062,0,0,0
1314364308.16052938,0.00005733,0.00005733,-24030.49609375,0,0,0
1314364308.21345949,0.00005728,0.00005728,-24031.96679688,0,0,0
1314364308.26548076,0.00005733,0.00005733,-24033.43554688,0,0,0
1314364308.31311703,0.00005727,0.00005728,-24034.90625000,0,0,0
1314364308.36145401,0.00005733,0.00005733,-24036.37695312,0,0,0
1314364308.41311741,0.00005727,0.00005728,-24037.84765625,0,0,0
1314364308.46051574,0.00005733,0.00005733,-24039.31640625,0,0,0
1314364308.51453829,0.00005727,0.00005728,-24040.78710938,0,0,0
1314364308.56145239,0.00005732,0.00005733,-24042.25781250,0,0,0
1314364308.62117934,0.00005727,0.00005728,-24043.72851562,0,0,0
1314364308.66147208,0.00005726,0.00005729,-24045.49218750,0,0,0
1314364308.72160482,0.00005726,0.00005729,-24046.66796875,0,0,0
1314364308.76145720,0.00005726,0.00005729,-24048.43359375,0,0,0
1314364308.81255341,0.00005726,0.00005729,-24049.60937500,0,0,0
1314364308.86164212,0.00005732,0.00005734,-24051.08007812,0,0,0
1314364308.91628551,0.00005726,0.00005729,-24052.55078125,0,0,0
1314364308.97254872,0.00005732,0.00005734,-24054.02148438,0,0,0
1314364309.01483059,0.00005731,0.00005734,-24055.78710938,0,0,0
1314364309.06175518,0.00005731,0.00005734,-24056.96289062,0,0,0
